Current weather by "City, St" or "zip code"  
 

Current Conditions: Fort Rucker, Lowe Army Heliport, AL

Overcast


78.0 F

Last Updated on Oct 21 2021, 12:58 pm CDT
Humidity: 65%
Wind Speed: N 0.0 mph
Barometer 30.14 in
Dewpoint: 65.5 F
Visibility: 10.00 mi
Precip: --
Heat Index: NA
Wind Chill: NA
Current conditions at:

Fort Rucker, Lowe Army Heliport, AL (KLOR)

Lat: 31.35889 Lon: 85.74833

Local Radar Image active severe weather and emergency alerts image image weather storm and storm spotter reports image weather observation monitoring service image
Local
Radar
Active
Alerts
Storm Reports Obs
Monitoring

Sign-up For Email & Text Message Weather Alert Notification Services



Advertise Here

Observation History for Fort Rucker, Lowe Army Heliport, AL


Time Wind
(mph)
Vis
(mi)
Weather Precip (in) Temperature (F) Relative
Humidity
Wind
Chill
(F)
Heat
Index
(F)
Pressure
Air Dwpt altimeter
(in)
sea level
(mb)
Rmks
12:58 pm CDT N 0.0 10.00 Overcast -- 78.0 65.5 65% NA NA 30.14 1018.8
11:58 am CDT N 0.0 10.00 Mostly Cloudy -- 78.0 66.0 67% NA NA 30.17 1019.8
10:58 am CDT S 5.8 10.00 Overcast -- 76.0 64.8 69% NA NA 30.18 1020.1
9:58 am CDT N 0.0 10.00 Overcast -- 73.0 63.7 73% NA NA 30.19 1020.5
8:58 am CDT S 3.5 10.00 Mostly Cloudy -- 70.0 62.4 78% NA NA 30.18 1020.2
7:58 am CDT N 0.0 10.00 Fair -- 65.0 62.4 92% NA NA 30.16 1019.5
5:58 am CDT N 0.0 9.00 Light Rain Trace 62.0 61.2 97% NA NA 30.15 1019.1
4:58 am CDT N 0.0 10.00 Overcast -- 61.0 60.3 97% NA NA 30.14 1018.8
3:58 am CDT N 0.0 9.00 Partly Cloudy -- 60.0 59.5 97% NA NA 30.14 1018.8
2:58 am CDT N 0.0 9.00 Mostly Cloudy -- 62.0 60.4 96% NA NA 30.15 1019.1
1:58 am CDT N 0.0 10.00 Mostly Cloudy -- 63.0 61.7 95% NA NA 30.16 1019.5
12:58 am CDT N 0.0 9.00 Mostly Cloudy -- 64.0 61.3 93% NA NA 30.16 1019.5
11:58 pm CDT N 0.0 10.00 Mostly Cloudy -- 65.0 61.7 90% NA NA 30.17 1019.8
10:58 pm CDT N 0.0 9.00 Fair -- 66.0 62.2 87% NA NA 30.20 M
9:58 pm CDT N 0.0 10.00 Fair -- 66.0 63.1 91% NA NA 30.19 M
8:58 pm CDT N 0.0 10.00 Mostly Cloudy -- 65.0 63.3 93% NA NA 30.19 M
7:58 pm CDT N 0.0 10.00 A Few Clouds -- 66.0 63.1 89% NA NA 30.17 M
6:58 pm CDT NE 3.5 10.00 A Few Clouds Trace 68.0 64.0 87% NA NA 30.16 1019.6
5:58 pm CDT N 0.0 6.00 Light Rain Trace 74.0 63.3 70% NA NA 30.17 1019.9
4:58 pm CDT N 0.0 10.00 Fair -- 78.0 61.0 55% NA NA 30.16 1019.5
3:58 pm CDT NE 3.5 10.00 Overcast -- 79.0 61.5 55% NA NA 30.17 1019.8
2:58 pm CDT N 0.0 10.00 Partly Cloudy -- 81.0 60.3 50% NA 82 30.18 1020.2
1:58 pm CDT NE 5.8 10.00 Fair -- 80.0 59.2 50% NA 81 30.19 1020.5

Regional Weather Observation


Enterprise Municipal Airport, AL (KEDN)

Overcast
77.0 F

Troy, Troy Municipal Airport, AL (KTOI)

Partly Cloudy
75.0 F

Fort Rucker, Lowe Army Heliport, AL (KLOR)

Overcast
78.0 F

Cairns Army Air Field / Ozark, AL (KOZR)

Mostly Cloudy
80.0 F

Hanchey AHP / Ozark, AL (KHEY)

Mostly Cloudy
80.0 F

Dothan, Dothan Regional Airport, AL (KDHN)

Mostly Cloudy
81.0 F

Advertise Here


Advertise Here